Flag for Canada Weather past 2 weeks in Norfolk, Ontario, Canada

Now
42 °F

Quite cool.


Feels Like: 38 °F
Forecast: 37 / 60 °F
Wind: 6 mph from North

Location: Delhi CS

Current Time: Apr 28, 2015 at 12:55:09 AM

Latest Report: Apr 28, 2015 at 12:00 AM


Visibility: N/A

Pressure: 30.03 "Hg

Humidity: 76%

Dew point: 35 °F

Location of NorfolkLocation

Historic Weather in Norfolk — Graph

°F

Norfolk temperature yesterday

Maximum temperature yesterday: 49 °F (at 7:00 PM)
Minimum temperature yesterday: 36 °F (at 8:00 AM)
Average temperature yesterday: 43 °F

Past Weeks' High & Low Weather Summary

 TemperatureHumidityPressure
High75 °F (Apr 13, 3:00 PM)100% (Apr 14, 2:00 AM)30.37 "Hg (Apr 14, 2:00 AM)
Low26 °F (Apr 25, 1:00 AM)18% (Apr 18, 3:00 PM)29.34 "Hg (Apr 20, 4:00 PM)
Average46 °F67%29.93 "Hg
* Reported Apr 12 11:00 PM — Apr 27 11:00 PM, Norfolk, Weather by CustomWeather, © 2015

Note: Actual official high and low records may vary slightly from our data, if they occured in-between our weather recording intervals... More about our weather records

Advertising

Norfolk weather history for previous 24 hours

 ConditionsComfort  
Time TempWeatherWind HumidityBarometerVisibility
11:00 PM
Mon, Apr 27
44 °FQuite cool.8 mph71%30.02 "HgN/A
10:00 PM46 °FCool.8 mph68%30.01 "HgN/A
9:00 PM47 °FCool.3 mph70%29.98 "HgN/A
8:00 PM48 °FCool.5 mph68%29.98 "HgN/A
7:00 PM49 °FCool.8 mph64%29.96 "HgN/A
6:00 PM49 °FCool.7 mph66%29.95 "HgN/A
5:00 PM48 °FCool.8 mph65%29.93 "HgN/A
4:00 PM48 °FCool.8 mph63%29.92 "HgN/A
3:00 PM46 °FCool.10 mph62%29.91 "HgN/A
2:00 PM44 °FQuite cool.9 mph65%29.91 "HgN/A
1:00 PM45 °FQuite cool.9 mph64%29.90 "HgN/A
12:00 PM43 °FQuite cool.9 mph66%29.90 "HgN/A
11:00 AM38 °FChilly.10 mph82%29.89 "HgN/A
10:00 AM39 °FChilly.10 mph81%29.88 "HgN/A
9:00 AM38 °FChilly.10 mph84%29.86 "HgN/A
8:00 AM36 °FChilly.10 mph93%29.85 "HgN/A
7:00 AM39 °FChilly.7 mph88%29.83 "HgN/A
6:00 AM39 °FChilly.7 mph89%29.82 "HgN/A
5:00 AM39 °FChilly.7 mph84%29.81 "HgN/A
4:00 AM40 °FQuite cool.6 mph80%29.81 "HgN/A
3:00 AM40 °FQuite cool.5 mph79%29.81 "HgN/A
2:00 AM40 °FQuite cool.3 mph79%29.83 "HgN/A
1:00 AM41 °FQuite cool.3 mph76%29.83 "HgN/A
12:00 AM42 °FQuite cool.6 mph73%29.84 "HgN/A
Weather by CustomWeather, © 2015

See weather overviewHow to use our weather pages